Probability
16 16 14 11 9 9 10 10 7 3 2 4 5 6 7 3 1 2 4 2 0 0 0 0 0 0 0 0 0 0 0 0 0 0 0 0 0 0
19 18 16 13 11 11 13 14 11 5 3 3 4 5 6 4 2 2 4 2 0 0 0 0 0 0 0 0 0 0 0 0 0 0 0 0 0 0
21 21 19 17 14 13 15 16 13 9 5 4 4 6 8 8 6 4 3 2 0 0 0 0 0 0 0 0 0 0 0 0 0 0 0 0 0 0
22 22 21 20 17 14 15 14 12 10 8 6 5 8 11 11 10 8 4 1 0 0 0 0 0 0 0 0 0 0 0 0 0 0 0 0 0 0
24 24 23 21 18 15 13 13 12 11 11 9 6 6 9 10 10 8 4 2 1 0 0 0 0 0 0 0 0 0 0 0 0 0 0 0 0 0
22 24 25 22 20 17 14 14 13 12 11 10 6 5 5 7 7 4 2 2 1 0 0 0 0 0 0 0 0 0 0 0 0 0 0 0 0 0
23 24 24 21 17 14 12 13 13 12 11 10 7 4 3 5 5 2 0 1 1 1 1 0 0 0 0 0 0 0 0 0 0 0 0 0 0 0
27 25 22 18 15 11 8 8 10 10 10 10 8 4 4 6 6 3 1 1 1 2 2 1 1 1 0 0 0 0 0 0 0 0 0 0 0 0
28 25 19 17 15 13 9 7 6 5 6 8 8 6 5 7 8 6 4 2 1 1 1 1 1 1 0 0 0 0 0 0 0 0 0 0 0 0
25 22 18 15 15 14 13 11 8 5 3 4 6 6 5 5 7 7 5 3 2 0 0 0 1 1 0 0 0 0 0 0 0 0 0 0 0 0
25 21 17 15 12 10 12 15 13 9 5 3 3 3 3 2 3 4 4 3 1 0 0 0 0 0 0 0 0 0 0 0 0 0 0 0 0 0
26 21 15 12 9 6 8 13 14 11 8 4 2 1 1 0 0 1 1 1 0 0 0 0 0 0 0 0 0 0 0 0 0 0 0 0 0 0
21 17 11 6 3 2 4 9 10 9 7 5 4 2 1 1 1 1 0 0 0 0 0 0 0 0 0 0 0 0 1 1 1 0 0 0 0 0
12 10 6 2 0 0 1 3 3 3 4 5 4 2 2 3 3 1 0 0 0 0 0 0 0 0 0 0 0 0 1 2 1 0 0 0 0 0
6 4 2 0 0 0 0 0 0 1 3 5 4 2 2 3 3 1 0 0 0 0 0 0 0 0 0 0 0 0 1 1 1 0 0 0 0 0
2 2 1 1 1 1 1 1 1 3 4 3 2 2 2 2 1 0 0 0 0 0 0 0 0 0 0 0 0 0 0 0 0 0 0 0 0 0
1 2 2 2 2 2 3 3 2 3 3 2 1 1 1 0 0 0 0 0 0 0 1 0 0 0 0 0 0 0 0 0 0 0 0 0 0 0
2 3 4 3 2 2 2 2 2 2 2 2 2 2 1 1 1 1 1 1 1 0 0 0 0 0 0 0 0 0 0 0 0 0 0 0 0 0
3 3 3 2 2 2 2 2 2 1 1 1 2 3 3 2 2 2 2 2 2 1 0 0 0 0 0 0 0 0 0 0 0 0 0 0 0 0
1 1 1 1 2 2 3 3 2 1 1 2 2 3 3 3 3 3 3 3 3 2 1 0 0 0 0 0 0 0 0 0 0 0 0 0 0 0
0 0 0 0 0 1 2 2 2 3 3 4 4 3 3 3 3 3 3 3 3 3 2 0 0 0 0 0 0 0 0 0 0 0 0 0 0 0
0 0 0 0 0 0 1 1 2 4 4 4 4 3 3 3 3 3 2 2 2 2 1 0 0 0 0 0 0 0 0 0 0 0 0 0 0 0
0 0 0 0 0 0 0 1 2 3 4 4 4 3 3 3 3 2 1 1 1 1 0 0 0 0 0 0 0 0 0 0 0 0 0 0 0 0
Wind_Speed
4 4 3 3 2 2 1 1 1 2 2 2 2 3 3 4 8 6 5 12 13 13 12 12 11 11 10 10 10 10 10 10 9 9 9 9 9 10
4 4 3 3 2 2 2 2 1 1 2 1 2 2 2 4 8 5 4 11 14 14 14 13 13 12 12 12 11 11 11 11 10 10 10 10 10 10
5 5 5 4 3 3 2 2 2 1 2 2 1 2 3 2 4 3 4 5 7 14 15 14 14 13 13 13 12 12 11 11 11 11 11 10 10 11
6 5 5 5 5 3 2 2 2 2 2 2 1 1 2 3 4 4 4 5 4 11 15 15 14 14 14 13 13 12 12 11 11 11 10 11 11 11
7 6 6 5 5 4 4 3 2 2 2 2 2 2 2 2 3 4 4 3 5 5 12 14 14 14 14 14 13 13 12 11 11 11 11 10 10 11
6 5 6 5 5 5 5 4 3 2 2 2 2 2 2 3 2 2 3 3 4 5 4 8 12 14 14 14 13 13 12 12 11 11 11 10 10 11
6 6 6 6 7 5 5 4 4 3 2 2 3 2 2 1 2 2 3 3 3 3 2 3 5 6 8 11 13 13 13 12 12 12 11 11 11 11
6 6 6 8 8 8 7 5 4 4 3 2 2 2 2 1 1 2 2 2 3 2 1 3 2 3 4 4 9 13 13 13 12 12 12 11 11 11
6 6 7 8 9 7 8 8 6 7 7 3 3 3 2 1 1 2 2 2 3 3 2 3 3 3 2 2 5 10 12 12 12 12 11 11 11 11
6 6 6 4 5 5 6 6 6 5 6 6 4 3 2 1 2 2 3 3 3 3 2 3 3 3 3 2 4 7 10 11 12 12 12 11 11 11
6 5 5 5 5 5 4 4 3 3 5 5 5 4 3 2 1 1 2 2 4 3 1 2 3 3 2 2 3 6 8 10 11 12 11 11 11 9
4 3 3 4 4 5 4 3 4 3 2 3 3 4 4 4 4 3 2 3 3 3 1 1 1 2 3 2 2 2 3 6 8 9 10 11 10 5
3 3 2 5 6 5 5 3 4 3 2 2 2 3 3 3 3 3 3 3 3 3 2 1 2 1 2 3 3 3 2 2 3 4 7 10 10 7
2 2 2 5 6 6 4 3 3 2 2 2 2 2 2 2 2 3 3 4 4 5 4 2 2 2 3 4 4 3 3 3 3 3 3 5 7 10
1 3 4 5 5 4 4 3 3 2 2 2 2 2 2 2 2 1 1 2 4 4 3 3 3 3 3 4 5 4 4 4 3 3 3 3 4 4
2 3 4 4 3 2 2 2 2 1 1 2 2 1 1 1 1 1 1 1 2 2 2 3 3 4 4 5 5 5 4 4 3 3 3 4 4 4
4 3 2 2 2 1 1 1 1 1 1 1 1 1 1 1 1 1 1 1 2 2 3 2 3 4 5 5 5 5 4 4 4 3 4 5 5 4
5 3 2 1 1 1 1 1 1 1 0 1 1 1 1 1 2 2 1 2 2 3 3 3 3 3 3 3 3 4 4 4 4 4 4 5 5 3
4 2 2 1 1 2 1 1 1 1 1 1 1 2 2 2 2 2 2 2 3 3 3 2 2 3 5 6 4 3 4 4 4 4 4 5 5 4
3 3 2 2 2 2 2 2 2 2 2 2 2 2 2 2 3 3 2 3 3 3 3 3 2 2 4 5 5 5 5 4 4 5 5 5 4 4
4 3 3 2 2 3 3 2 2 2 3 2 3 3 3 3 3 3 3 4 4 3 4 3 3 4 4 3 5 4 4 4 5 4 5 5 5 4
5 4 4 4 4 4 3 3 3 3 4 3 3 3 3 3 3 3 3 3 3 3 4 3 3 3 3 4 6 6 6 4 5 7 7 6 4 4
5 5 5 5 5 4 4 5 6 5 5 5 4 4 4 4 3 3 3 3 4 4 4 4 4 3 4 4 5 5 7 6 5 4 4 6 8 9
Wind_Direction
219 216 227 254 242 247 254 234 219 252 248 213 181 176 167 152 162 187 186 196 200 205 211 214 217 221 225 230 234 238 242 246 248 250 254 258 263 267
209 216 216 253 253 236 240 245 238 233 260 247 212 165 166 170 171 196 202 193 202 207 212 214 217 221 225 230 234 236 240 243 246 248 251 254 256 261
218 211 208 231 256 262 247 233 226 219 237 271 262 161 163 163 166 208 213 198 204 212 214 217 220 223 226 230 233 236 239 241 244 246 249 252 256 260
214 218 212 217 220 248 258 255 236 209 202 245 265 233 198 189 187 216 237 233 218 208 210 216 220 223 227 231 234 237 239 242 244 246 250 254 258 262
212 210 213 217 211 220 233 248 255 247 202 211 242 245 222 207 193 226 251 262 266 232 208 216 222 226 228 230 232 234 237 238 241 245 249 253 256 260
217 209 210 211 209 213 224 223 233 247 244 228 236 241 233 214 188 220 256 248 257 266 220 211 217 223 228 229 231 231 232 234 238 243 247 251 255 259
216 213 215 208 209 208 223 217 224 223 232 235 238 246 245 229 219 227 254 264 254 252 255 237 213 217 225 231 233 233 231 230 233 237 242 248 252 257
214 215 215 208 205 205 211 212 210 221 229 244 253 262 267 261 248 258 263 280 282 278 277 280 266 231 225 213 214 219 223 227 230 234 239 244 250 255
216 217 229 222 198 203 207 211 218 218 213 217 246 258 273 295 290 282 277 273 266 279 295 279 284 287 280 275 219 210 216 222 228 233 238 244 250 255
219 219 226 231 209 206 208 209 210 211 213 213 221 238 247 256 247 250 263 274 269 268 259 263 269 269 277 275 246 224 219 224 229 234 239 245 251 257
223 219 214 212 202 199 212 218 211 221 211 202 199 205 213 242 268 302 291 289 284 278 261 249 268 275 265 260 254 235 228 231 235 240 246 252 257 264
213 210 202 191 182 183 200 210 222 235 234 205 203 224 229 229 220 214 236 258 273 280 296 286 284 311 297 281 298 304 259 257 254 249 251 256 257 254
204 193 190 171 171 175 183 194 208 218 222 231 223 221 225 223 216 216 216 228 249 259 293 323 303 298 279 293 299 293 282 277 261 258 253 256 255 240
199 159 145 156 161 173 186 204 202 208 227 225 236 246 243 234 226 222 219 220 228 240 254 258 261 270 281 286 287 289 289 283 275 267 263 266 261 257
104 107 127 143 148 164 193 206 206 210 227 236 241 245 239 235 234 232 229 230 239 246 253 245 252 262 263 273 282 288 294 288 276 286 292 290 281 270
126 108 103 107 112 116 155 184 189 203 219 241 257 265 271 264 250 248 245 253 266 270 261 255 253 260 267 271 275 284 290 289 301 303 302 293 284 278
131 114 105 106 121 132 118 99 112 115 263 273 280 287 293 304 300 298 297 293 282 291 301 292 264 254 259 270 278 281 287 293 298 302 303 297 292 291
107 105 104 110 120 113 113 105 99 96 4 323 329 339 335 336 337 341 337 327 320 313 309 312 320 314 299 286 273 287 293 296 301 302 298 296 296 300
97 96 86 73 62 61 57 51 47 46 28 17 14 7 0 357 358 354 349 347 328 313 310 318 325 317 308 303 303 295 290 292 296 297 297 295 294 294
80 79 72 61 53 48 38 34 34 41 37 26 38 28 19 10 4 356 356 351 326 317 318 324 333 325 305 301 301 297 277 282 292 296 297 295 290 285
67 63 60 57 51 51 48 42 44 51 45 31 32 21 14 6 355 344 340 335 324 323 326 322 305 295 282 293 299 299 299 283 279 279 291 298 300 299
57 53 49 51 52 48 44 37 33 39 33 31 25 8 356 352 345 340 336 330 324 319 318 311 300 301 304 304 304 305 307 308 297 286 272 262 277 289
54 52 46 44 41 37 35 34 34 31 25 17 10 357 350 346 342 337 331 327 323 325 327 325 322 316 315 311 309 310 318 323 318 314 303 288 274 270